{"data":{"norad_id":66511,"intl_designator":"2025-263AC","name":"STARLINK-35444","alt_names":[],"object_type":"PAYLOAD","status":"ACTIVE","operator":null,"country":"US","launch_date":"2025-11-15","launch_site_code":"AFETR","launch_vehicle":null,"mission":null,"orbit_class":"UNKNOWN","rcs_meters":null,"size_class":null,"mass_kg":null,"dimensions":null,"purposes":["comms"],"wikipedia_slug":null,"has_3d_model":false,"image_url":null,"decayed_at":null,"tle_current":{"epoch":"2026-09-20T11:55:35.015520Z","epoch_age_seconds":89539,"freshness":"FRESH","line1":"1 66511U 25263AC  26263.49693305  .00012450  00000+0  46107-3 0  9997","line2":"2 66511  42.9993 330.3906 0000796 290.0783  69.9983 15.27588392 48693","mean_motion":15.27588392,"eccentricity":7.96e-5,"inclination_deg":42.9993,"raan_deg":330.3906,"arg_perigee_deg":290.0783,"mean_anomaly_deg":69.9983,"bstar":0.00046107,"rev_number":4869,"period_min":94.266230847347,"perigee_km":482.47781907467,"apogee_km":483.5701159007,"semimajor_km":6861.1609674877,"source":"CELESTRAK","updated_at":"2026-09-21T09:00:35.924595Z"}}}